Oldest pages

Jump to: navigation, search

Showing below up to 250 results in range #1 to #250.

View (previous 250 | next 250) (20 | 50 | 100 | 250 | 500)

  1. Open Babel 1.100.2‏‎ (21:31, 5 December 2005)
  2. Tutorial:Other Tools‏‎ (12:21, 8 December 2005)
  3. Formats:Notes‏‎ (12:28, 27 January 2006)
  4. Alchemy‏‎ (08:54, 30 January 2006)
  5. Dock 3.5 Box‏‎ (08:58, 30 January 2006)
  6. Cacao Cartesian‏‎ (09:03, 30 January 2006)
  7. CAChe MolStruct‏‎ (09:04, 30 January 2006)
  8. CCC‏‎ (09:20, 30 January 2006)
  9. Gaussian 98/03 Cartesian Input‏‎ (09:34, 30 January 2006)
  10. Accelrys/MSI Quanta CSR‏‎ (09:39, 30 January 2006)
  11. DMol3 coordinates‏‎ (09:42, 30 January 2006)
  12. PDB‏‎ (09:42, 30 January 2006)
  13. Feature‏‎ (09:51, 30 January 2006)
  14. Fenske-Hall Z-Matrix‏‎ (09:52, 30 January 2006)
  15. MDL Molfile‏‎ (10:03, 30 January 2006)
  16. Sybyl mol2‏‎ (10:04, 30 January 2006)
  17. Gaussian98/03 Output‏‎ (10:08, 30 January 2006)
  18. Test‏‎ (10:20, 30 January 2006)
  19. GAMESS Input‏‎ (10:21, 30 January 2006)
  20. GROMOS96‏‎ (10:22, 30 January 2006)
  21. HyperChem HIN‏‎ (10:26, 30 January 2006)
  22. Jaguar input‏‎ (10:58, 30 January 2006)
  23. Jaguar output‏‎ (11:08, 30 January 2006)
  24. MacroModel‏‎ (11:14, 30 January 2006)
  25. MOPAC Cartesian‏‎ (11:18, 30 January 2006)
  26. MOPAC Output‏‎ (11:21, 30 January 2006)
  27. MPQC output‏‎ (11:29, 30 January 2006)
  28. Q-Chem input‏‎ (11:58, 30 January 2006)
  29. XED‏‎ (12:10, 30 January 2006)
  30. XML‏‎ (12:11, 30 January 2006)
  31. Sybyl descriptor‏‎ (12:33, 30 January 2006)
  32. PubChem‏‎ (12:34, 30 January 2006)
  33. TurboMole Coordinate‏‎ (12:34, 30 January 2006)
  34. MDL RXN‏‎ (12:36, 30 January 2006)
  35. Open Babel 1.100.0‏‎ (12:39, 30 January 2006)
  36. POV-Ray input‏‎ (12:40, 30 January 2006)
  37. ViewMol‏‎ (12:40, 30 January 2006)
  38. Chem3D Cartesian 2‏‎ (12:40, 30 January 2006)
  39. Open Babel 1.100.1‏‎ (12:43, 30 January 2006)
  40. ShelX‏‎ (12:44, 30 January 2006)
  41. Chemtool‏‎ (12:48, 30 January 2006)
  42. Chemical Resource Kit 2D‏‎ (12:48, 30 January 2006)
  43. Chemical Resource Kit 3D‏‎ (12:48, 30 January 2006)
  44. Parallel Quantum Solutions‏‎ (12:48, 30 January 2006)
  45. Repository‏‎ (16:47, 31 January 2006)
  46. Migration to 2.0‏‎ (18:30, 16 February 2006)
  47. PhdThesis:gle01‏‎ (11:04, 4 March 2006)
  48. Article:gm78‏‎ (11:22, 4 March 2006)
  49. Article:ksfams96‏‎ (11:34, 4 March 2006)
  50. Article:ml91‏‎ (11:37, 4 March 2006)
  51. Book:tri92‏‎ (11:38, 4 March 2006)
  52. Misc:aj88‏‎ (11:39, 4 March 2006)
  53. Ring detection‏‎ (11:47, 4 March 2006)
  54. Article:bk73‏‎ (08:03, 8 March 2006)
  55. Aromaticity‏‎ (08:04, 8 March 2006)
  56. Article:dghl89a‏‎ (08:06, 8 March 2006)
  57. Article:fig96‏‎ (08:07, 8 March 2006)
  58. Article:dghl89b‏‎ (08:07, 8 March 2006)
  59. Amber Prep‏‎ (08:10, 8 March 2006)
  60. Article:bp94‏‎ (08:11, 8 March 2006)
  61. Article:dow03‏‎ (08:19, 8 March 2006)
  62. Article:fpdb93‏‎ (08:23, 8 March 2006)
  63. Article:bs93‏‎ (08:23, 8 March 2006)
  64. Article:del05‏‎ (15:30, 16 March 2006)
  65. Article:sta05‏‎ (15:30, 16 March 2006)
  66. Article:mrww04‏‎ (15:33, 16 March 2006)
  67. Chemical Markup Language‏‎ (15:38, 16 March 2006)
  68. Article:rr99‏‎ (15:40, 16 March 2006)
  69. Article:mr01‏‎ (15:40, 16 March 2006)
  70. Article:gmrw01‏‎ (15:40, 16 March 2006)
  71. Article:wil01‏‎ (15:40, 16 March 2006)
  72. Article:mr03‏‎ (15:41, 16 March 2006)
  73. Article:ggwas06‏‎ (14:25, 1 April 2006)
  74. ChemSpotlight‏‎ (12:20, 31 May 2006)
  75. Developer:Testing‏‎ (11:14, 22 June 2006)
  76. Developer:Building‏‎ (11:14, 22 June 2006)
  77. Open Babel 2.0.1‏‎ (11:17, 22 June 2006)
  78. Open Babel 2.0.0‏‎ (11:18, 22 June 2006)
  79. BeginModify‏‎ (18:08, 28 June 2006)
  80. Gasteiger-Marsili‏‎ (08:01, 5 July 2006)
  81. ChiralData‏‎ (18:14, 18 July 2006)
  82. History‏‎ (13:56, 13 October 2006)
  83. Snapshots‏‎ (11:33, 17 October 2006)
  84. Motivation‏‎ (14:40, 19 October 2006)
  85. Generic Data‏‎ (14:49, 19 October 2006)
  86. HowTo:Add A New File Format‏‎ (14:54, 19 October 2006)
  87. Developer:Documentation‏‎ (14:55, 19 October 2006)
  88. Developer:Archeology‏‎ (14:56, 19 October 2006)
  89. Hybridization‏‎ (18:44, 19 October 2006)
  90. Open Babel report‏‎ (14:13, 30 October 2006)
  91. Windows GUI‏‎ (16:07, 1 November 2006)
  92. Cheminformatics 101‏‎ (09:40, 2 November 2006)
  93. Roadmap‏‎ (08:21, 3 December 2006)
  94. Keywords‏‎ (16:50, 14 December 2006)
  95. Article:kdr06‏‎ (20:07, 28 December 2006)
  96. OpenBabel on Windows‏‎ (14:49, 18 January 2007)
  97. Article:ghhmrsww06‏‎ (10:37, 1 February 2007)
  98. Article:mtsg07‏‎ (10:44, 1 February 2007)
  99. Citations‏‎ (10:48, 1 February 2007)
  100. Article:mh07‏‎ (10:49, 1 February 2007)
  101. OBMol‏‎ (14:09, 6 February 2007)
  102. List of Classes‏‎ (21:20, 6 February 2007)
  103. SMILES‏‎ (07:06, 22 February 2007)
  104. FP4‏‎ (12:19, 26 February 2007)
  105. FP2‏‎ (12:20, 26 February 2007)
  106. FP3‏‎ (12:20, 26 February 2007)
  107. Documentation Roadmap‏‎ (15:01, 26 February 2007)
  108. XYZ (format)‏‎ (06:40, 28 February 2007)
  109. Bond Orders‏‎ (14:00, 8 March 2007)
  110. Version 2.1 Projects‏‎ (11:03, 26 March 2007)
  111. Unit Tests‏‎ (12:37, 27 March 2007)
  112. Open Babel 2.1.0‏‎ (05:52, 9 April 2007)
  113. ChemDraw CDX‏‎ (05:52, 9 April 2007)
  114. ChemDraw CDXML‏‎ (05:53, 9 April 2007)
  115. Fasta Sequence‏‎ (05:55, 9 April 2007)
  116. Gaussian fchk‏‎ (05:56, 9 April 2007)
  117. Open Babel MolReport‏‎ (05:59, 9 April 2007)
  118. Titles‏‎ (06:00, 9 April 2007)
  119. MOPAC Internal‏‎ (06:15, 9 April 2007)
  120. OpenBabelGUI‏‎ (09:17, 30 April 2007)
  121. Open Babel 2.1.1‏‎ (12:16, 7 July 2007)
  122. Developer:Cpp Tutorial‏‎ (12:37, 13 July 2007)
  123. Developer:Perl Tutorial‏‎ (02:25, 6 September 2007)
  124. Chemical Kinetics Formats‏‎ (15:23, 6 September 2007)
  125. Radicals and SMILES extensions‏‎ (01:12, 19 September 2007)
  126. OBEP 1‏‎ (07:18, 2 October 2007)
  127. Molecular mechanics dev‏‎ (07:20, 2 October 2007)
  128. ACR‏‎ (07:20, 2 October 2007)
  129. Canonical SMILES‏‎ (07:20, 2 October 2007)
  130. Accelrys/MSI BGF‏‎ (07:20, 2 October 2007)
  131. InChI‏‎ (07:20, 2 October 2007)
  132. SMILES FIX‏‎ (07:21, 2 October 2007)
  133. Ghemical‏‎ (20:45, 3 October 2007)
  134. Open Babel 2.0.2‏‎ (05:08, 12 October 2007)
  135. YASARA Yob‏‎ (05:09, 12 October 2007)
  136. Zindo‏‎ (05:10, 12 October 2007)
  137. CML React‏‎ (05:10, 12 October 2007)
  138. Open Babel 1.99‏‎ (05:11, 12 October 2007)
  139. Ball and Stick‏‎ (05:11, 12 October 2007)
  140. Ruby‏‎ (05:12, 12 October 2007)
  141. Scripting‏‎ (05:12, 12 October 2007)
  142. NWChem output‏‎ (05:12, 12 October 2007)
  143. Free Form Fractional‏‎ (05:14, 12 October 2007)
  144. PATTY‏‎ (05:14, 12 October 2007)
  145. Errors‏‎ (05:20, 12 October 2007)
  146. CSD CSSR‏‎ (05:20, 12 October 2007)
  147. Q-Chem output‏‎ (05:21, 12 October 2007)
  148. NWChem input‏‎ (05:22, 12 October 2007)
  149. PCModel‏‎ (05:22, 12 October 2007)
  150. Raw Copy‏‎ (05:22, 12 October 2007)
  151. Tinker XYZ‏‎ (05:22, 12 October 2007)
  152. ChemDraw Connection Table‏‎ (05:22, 12 October 2007)
  153. GAMESS Output‏‎ (05:22, 12 October 2007)
  154. Radicals and SMILES extensions in OpenBabel‏‎ (12:16, 12 October 2007)
  155. OBForceFieldMM2‏‎ (11:31, 15 December 2007)
  156. OBForceFieldGhemical‏‎ (11:41, 15 December 2007)
  157. OBForceFieldUFF‏‎ (11:55, 15 December 2007)
  158. MPQC simplified input‏‎ (11:06, 27 December 2007)
  159. Blue Obelisk‏‎ (07:17, 1 January 2008)
  160. OBForceFieldMMFF94‏‎ (12:06, 24 February 2008)
  161. Molecular mechanics‏‎ (09:44, 28 April 2008)
  162. Fingerprint (format)‏‎ (15:18, 3 June 2008)
  163. List of extensions‏‎ (13:55, 2 July 2008)
  164. Reaction SMILES‏‎ (13:56, 2 July 2008)
  165. ADF Tape41‏‎ (13:58, 2 July 2008)
  166. APBS PQR‏‎ (13:58, 2 July 2008)
  167. PNG (embedded)‏‎ (13:58, 2 July 2008)
  168. MSMS input‏‎ (13:59, 2 July 2008)
  169. Accelrys MSI text‏‎ (14:00, 2 July 2008)
  170. Molden‏‎ (14:00, 2 July 2008)
  171. MmCIF‏‎ (14:00, 2 July 2008)
  172. MCDL‏‎ (14:01, 2 July 2008)
  173. Gaussian Z-matrix Input‏‎ (14:01, 2 July 2008)
  174. GAMESS UK Output‏‎ (14:01, 2 July 2008)
  175. GAMESS UK Input‏‎ (14:02, 2 July 2008)
  176. OpenDX grid‏‎ (14:02, 2 July 2008)
  177. Gaussian Cube‏‎ (14:03, 2 July 2008)
  178. Chemkin‏‎ (14:04, 2 July 2008)
  179. ADF Output‏‎ (14:04, 2 July 2008)
  180. Obgrep‏‎ (09:08, 3 July 2008)
  181. Obchiral‏‎ (09:09, 3 July 2008)
  182. Obfit‏‎ (09:09, 3 July 2008)
  183. Obprop‏‎ (09:09, 3 July 2008)
  184. Obrotate‏‎ (09:10, 3 July 2008)
  185. Obminimize‏‎ (09:13, 3 July 2008)
  186. Obrotamer‏‎ (09:13, 3 July 2008)
  187. Obconformer‏‎ (09:19, 3 July 2008)
  188. Obgen‏‎ (09:24, 3 July 2008)
  189. Plugins‏‎ (09:26, 25 August 2008)
  190. Code Standards‏‎ (09:35, 25 August 2008)
  191. Version 3.0 Design‏‎ (09:36, 25 August 2008)
  192. Atom Indexing‏‎ (08:49, 30 August 2008)
  193. Propsal for new stereochemistry implementation‏‎ (08:32, 13 September 2008)
  194. Open Babel 2.2.0‏‎ (16:14, 9 January 2009)
  195. UniChem XYZ‏‎ (07:53, 8 February 2009)
  196. Perl‏‎ (11:43, 16 February 2009)
  197. Obenergy‏‎ (13:36, 23 February 2009)
  198. Obprobe‏‎ (02:59, 24 February 2009)
  199. Adding new commandline options‏‎ (10:25, 5 March 2009)
  200. Stereochemistry‏‎ (15:44, 19 June 2009)
  201. Crystallography‏‎ (04:44, 25 June 2009)
  202. Open Babel 2.2.1‏‎ (08:57, 10 July 2009)
  203. Open Babel 2.2.2‏‎ (08:59, 10 July 2009)
  204. Open Babel 2.2.3‏‎ (04:57, 30 September 2009)
  205. Install (MSVC)‏‎ (01:20, 12 October 2009)
  206. Tutorial:Basic Usage‏‎ (02:17, 30 October 2009)
  207. --filter option‏‎ (07:51, 26 November 2009)
  208. --append‏‎ (10:57, 26 November 2009)
  209. Atomtype‏‎ (13:41, 1 December 2009)
  210. Version 3.0 Projects‏‎ (13:47, 6 January 2010)
  211. Article:fpbg99‏‎ (05:49, 29 January 2010)
  212. Multilevel Neighborhoods of Atoms‏‎ (23:13, 30 January 2010)
  213. FastSearch‏‎ (09:22, 2 February 2010)
  214. --unique‏‎ (14:45, 26 February 2010)
  215. --sort‏‎ (16:22, 26 February 2010)
  216. Tutorial:Fingerprints‏‎ (01:44, 23 April 2010)
  217. Babel‏‎ (06:03, 5 May 2010)
  218. Compile from source with MS Visual Studio‏‎ (06:01, 6 May 2010)
  219. Install (Cygwin)‏‎ (13:43, 31 May 2010)
  220. --splitinto‏‎ (06:59, 15 June 2010)
  221. What's available? Online help‏‎ (12:14, 29 June 2010)
  222. Thermo‏‎ (05:15, 3 July 2010)
  223. Version 2.3 Projects‏‎ (23:32, 3 August 2010)
  224. OBAtom‏‎ (10:56, 16 August 2010)
  225. Install (MinGW)‏‎ (16:33, 12 October 2010)
  226. Install (Android)‏‎ (09:21, 14 October 2010)
  227. CMake‏‎ (15:46, 16 October 2010)
  228. Open Babel 2.3.0‏‎ (19:46, 22 October 2010)
  229. Install Open Babel 2.2‏‎ (04:17, 25 October 2010)
  230. Install (source code)‏‎ (05:10, 25 October 2010)
  231. Developer:Tutorial‏‎ (08:13, 28 October 2010)
  232. Accelrys/MSI Biosym/Insight II CAR‏‎ (05:54, 12 November 2010)
  233. Code Structure of OpenBabel‏‎ (02:51, 15 March 2011)
  234. Crystallographic Information File‏‎ (10:43, 17 March 2011)
  235. Cacao Internal‏‎ (10:45, 17 March 2011)
  236. Chem3D Cartesian 1‏‎ (10:46, 17 March 2011)
  237. ADF Input‏‎ (10:48, 17 March 2011)
  238. Open Babble‏‎ (03:04, 25 March 2011)
  239. 2nd Open Babble‏‎ (04:14, 19 April 2011)
  240. Frequently Asked Questions‏‎ (11:16, 9 October 2011)
  241. Open Babel 2.3.1‏‎ (01:32, 18 October 2011)
  242. SMARTS‏‎ (02:35, 10 November 2011)
  243. IBabel‏‎ (02:09, 4 January 2012)
  244. Related Projects‏‎ (05:50, 24 May 2012)
  245. Python‏‎ (00:08, 11 October 2012)
  246. THANKS‏‎ (02:31, 18 October 2012)
  247. Developer:API‏‎ (11:26, 9 June 2013)
  248. Mailing lists‏‎ (11:27, 9 June 2013)
  249. Developer:Best Practices‏‎ (11:28, 9 June 2013)
  250. Main Page‏‎ (12:30, 25 September 2016)

View (previous 250 | next 250) (20 | 50 | 100 | 250 | 500)